Find Starlink 36864

NORAD ID: 68045 Int'l Des: 2026-041 Owner: SPXS Country: US Constellation: starlink operational
LEOCIRCULAR

Live-Position

3D-Globus wird geladen...

Über Starlink 36864

Beschreibung wird geladen...

Nächste Überflüge

Passes for default location (London). Set your location on the main map for personalized predictions.

Höhenverlauf

Loading altitude history...

Zweizeiliger Elementsatz

1 68045U 26041F 26106.91668981 -.01909318 00000-0 -41686-1 0 9998
2 68045 53.1600 232.6565 0000602 81.4463 14.7686 15.46851477 5963
Epoch: 16. Apr. 2026 • Age: 12 hours

Aktueller Status

Höhe 435.3 km
Geschwindigkeit 7.66 km/s
Subsatellitenpunkt 39.49°N, 90.84°W
Startdatum 2. März 2026
Alter 0.1 years
Typ internet

Technische Details

Klassifizierung Payload
Masse 575.00 kg
Trockenmasse 530.00 kg
Gesamtmasse 575.00 kg
Länge 0.30 m
Durchmesser 4.10 m
Spannweite 29.00 m
Form Box + pan
Hersteller SPXS
Bus-Typ Starlink V2MO
Phasenstatus In Orbit
Besitzer/Staat SPXS/US

Most Searched